Nurnberg, Germany

4:45 PM CEST on August 24, 2016 (GMT +0200)
Nurnberg

Weather History for EDDN - October, 2012

Change the Weather History Date:

Wednesday, October 3, 2012

  Actual Average Record
Temperature  
Mean Temperature 54 °F -  
Max Temperature 65 °F 56 °F 75 °F (2011)
Min Temperature 44 °F 40 °F 31 °F (2013)
Degree Days  
Heating Degree Days 10    
Growing Degree Days 4 (Base 50)    
Moisture  
Dew Point 47 °F    
Average Humidity 75    
Maximum Humidity 93    
Minimum Humidity 42    
Precipitation  
Precipitation 0.00 in 0.06 in - ()
Sea Level Pressure  
Sea Level Pressure 30.03 in    
Wind  
Wind Speed 6 mph ()    
Max Wind Speed 15 mph    
Max Gust Speed -    
Visibility 8.9 miles    
Events Rain    
Averages and records for this station are not official NWS values.
T = Trace of Precipitation, MM = Missing Value Source: Averaged Metar Reports

Daily Weather History Graph

Daily Weather History Graph

Search for Another Location

Airport or City:

Trip Planner

Search our weather history database for the weather conditions in past years. The results will help you decide how hot, cold, wet, or windy it might be!

Date:

Astronomy

Oct. 03, 2012 Rise Set
Actual Time 7:18 AM CEST 6:49 PM CEST
Civil Twilight 6:47 AM CEST 7:21 PM CEST
Nautical Twilight 6:09 AM CEST 7:58 PM CEST
Astronomical Twilight 5:32 AM CEST 8:36 PM CEST
Moon 8:07 PM CEST (10/3) 10:48 AM CEST (10/3)
Length of Visible Light 12h 34m
Length of Day
11h 30m
Waning Gibbous, 90% of the Moon is Illuminated
Oct 3
Waning Gibbous
Oct 8
Last Quarter
Oct 15
New
Oct 22
First Quarter
Oct 29
Full

Hourly Weather History & Observations

Time (CEST) Temp. Windchill Dew Point Humidity Pressure Visibility Wind Dir Wind Speed Gust Speed Precip Events Conditions
12:00 AM 47 °F - 45 °F 88% 30.11 in 16 mi East 6.7 mph - -  
12:20 AM 44.6 °F 40.2 °F 42.8 °F 93% 30.06 in - ESE 8.1 mph - N/A   Clear
12:50 AM 44.6 °F 40.7 °F 42.8 °F 93% 30.06 in - ESE 6.9 mph - N/A   Clear
1:00 AM 45 °F - 43 °F 92% 30.10 in 16 mi ESE 6.7 mph - -   Clear
1:20 AM 44.6 °F 40.7 °F 42.8 °F 93% 30.06 in - ESE 6.9 mph - N/A   Clear
1:50 AM 44.6 °F 40.7 °F 42.8 °F 93% 30.06 in - ESE 6.9 mph - N/A   Clear
2:00 AM 45 °F - 43 °F 90% 30.10 in 16 mi ESE 6.7 mph - -   Scattered Clouds
2:20 AM 44.6 °F 40.7 °F 42.8 °F 93% 30.06 in - East 6.9 mph - N/A   Clear
2:50 AM 44.6 °F 41.4 °F 42.8 °F 93% 30.06 in - ESE 5.8 mph - N/A   Clear
3:00 AM 45 °F - 43 °F 91% 30.09 in 16 mi ESE 6.7 mph - -   Scattered Clouds
3:20 AM 44.6 °F 40.7 °F 42.8 °F 93% 30.06 in - ESE 6.9 mph - N/A   Clear
3:50 AM 44.6 °F 39.2 °F 42.8 °F 93% 30.04 in - East 10.4 mph - N/A   Clear
4:00 AM 45 °F - 43 °F 91% 30.08 in 16 mi East 11.2 mph - -   Scattered Clouds
4:20 AM 44.6 °F 40.7 °F 42.8 °F 93% 30.04 in - ESE 6.9 mph - N/A   Clear
4:50 AM 44.6 °F 39.7 °F 42.8 °F 93% 30.04 in - ESE 9.2 mph - N/A   Clear
5:20 AM 46.4 °F 42.9 °F 44.6 °F 93% 30.04 in - ESE 6.9 mph - N/A   Clear
5:50 AM 46.4 °F 42.4 °F 44.6 °F 93% 30.04 in - ESE 8.1 mph - N/A   Clear
6:00 AM 47 °F - 45 °F 90% 30.06 in 16 mi ESE 8.9 mph - -   Mostly Cloudy
6:20 AM 44.6 °F 41.4 °F 42.8 °F 93% 30.04 in - SE 5.8 mph - N/A   Clear
6:50 AM 46.4 °F 43.5 °F 42.8 °F 87% 30.04 in - ESE 5.8 mph - N/A   Clear
7:00 AM 46 °F - 43 °F 85% 30.06 in 25 mi ESE 6.7 mph - -   Partly Cloudy
7:20 AM 46.4 °F 43.5 °F 44.6 °F 93% 30.04 in - ESE 5.8 mph - N/A   Clear
7:50 AM 48.2 °F - 44.6 °F 87% 30.04 in - ESE 5.8 mph - N/A   Clear
8:00 AM 47 °F - 45 °F 92% 30.06 in 22 mi ESE 4.5 mph - -   Mostly Cloudy
8:20 AM 48.2 °F - 46.4 °F 93% 30.04 in 6.2 mi ESE 3.5 mph - N/A   Mostly Cloudy
8:50 AM 50.0 °F - 46.4 °F 87% 30.04 in 6.2 mi SE 5.8 mph - N/A   Scattered Clouds
9:00 AM 51 °F - 47 °F 81% 30.06 in 22 mi SE 4.5 mph - -   Mostly Cloudy
9:20 AM 51.8 °F - 48.2 °F 88% 30.04 in 6.2 mi SE 6.9 mph - N/A   Scattered Clouds
9:50 AM 55.4 °F - 48.2 °F 77% 30.04 in - SE 4.6 mph - N/A   Clear
10:00 AM 55 °F - 48 °F 70% 30.06 in 22 mi SE 4.5 mph - -   Scattered Clouds
10:20 AM 57.2 °F - 48.2 °F 72% 30.04 in - South 5.8 mph - N/A   Clear
10:50 AM 59.0 °F - 50.0 °F 72% 30.04 in - SSW 5.8 mph - N/A   Clear
11:20 AM 60.8 °F - 48.2 °F 63% 30.04 in - South 5.8 mph - N/A   Clear
11:50 AM 62.6 °F - 50.0 °F 63% 30.04 in 6.2 mi SW 6.9 mph - N/A   Mostly Cloudy
12:00 PM 62 °F - 49 °F 52% 30.03 in 25 mi South 6.7 mph - -   Mostly Cloudy
12:20 PM 64.4 °F - 50.0 °F 59% 30.04 in 6.2 mi Variable 3.5 mph - N/A   Mostly Cloudy
12:50 PM 64.4 °F - 46.4 °F 52% 30.04 in 6.2 mi SSW 5.8 mph - N/A   Mostly Cloudy
1:00 PM 64 °F - 47 °F 42% 30.01 in 28 mi SSW 8.9 mph - -   Mostly Cloudy
1:20 PM 62.6 °F - 48.2 °F 59% 30.01 in 6.2 mi WSW 10.4 mph - N/A   Mostly Cloudy
1:50 PM 60.8 °F - 48.2 °F 63% 30.04 in 6.2 mi West 15.0 mph - N/A   Mostly Cloudy
2:00 PM 61 °F - 49 °F 54% 30.02 in 28 mi WSW 8.9 mph - - Rain Light Rain
2:20 PM 62.6 °F - 50.0 °F 63% 30.01 in 6.2 mi WSW 8.1 mph - N/A   Mostly Cloudy
2:50 PM 62.6 °F - 50.0 °F 63% 30.01 in 6.2 mi SW 5.8 mph - N/A   Mostly Cloudy
3:00 PM 63 °F - 49 °F 51% 30.01 in 28 mi SW 8.9 mph - - Rain Light Rain
3:20 PM 62.6 °F - 50.0 °F 63% 30.01 in 6.2 mi SSW 5.8 mph - N/A   Mostly Cloudy
3:50 PM 62.6 °F - 46.4 °F 55% 30.01 in 6.2 mi WSW 10.4 mph - N/A   Mostly Cloudy
4:00 PM 63 °F - 47 °F 45% 30.00 in 34 mi WSW 11.2 mph - -   Mostly Cloudy
4:20 PM 64.4 °F - 48.2 °F 56% 30.01 in 6.2 mi WSW 10.4 mph - N/A   Mostly Cloudy
4:50 PM 64.4 °F - 48.2 °F 56% 30.01 in - WSW 11.5 mph - N/A   Clear
5:20 PM 64.4 °F - 48.2 °F 56% 29.98 in - SW 5.8 mph - N/A   Clear
5:50 PM 62.6 °F - 48.2 °F 59% 29.98 in 6.2 mi WSW 9.2 mph - N/A   Partly Cloudy
6:00 PM 63 °F - 48 °F 48% 29.98 in 37 mi WSW 8.9 mph - -   Scattered Clouds
6:20 PM 62.6 °F - 50.0 °F 63% 29.98 in 6.2 mi West 5.8 mph - N/A   Scattered Clouds
6:50 PM 62.6 °F - 48.2 °F 59% 29.98 in 6.2 mi WSW 6.9 mph - N/A   Scattered Clouds
7:00 PM 62 °F - 49 °F 52% 29.98 in 37 mi WSW 6.7 mph - -   Partly Cloudy
7:20 PM 60.8 °F - 48.2 °F 63% 29.98 in - Variable 2.3 mph - N/A   Clear
7:50 PM 59.0 °F - 48.2 °F 67% 29.98 in - Variable 1.2 mph - N/A   Clear
8:00 PM 58 °F - 50 °F 66% 29.99 in 37 mi South 2.2 mph - -   Partly Cloudy
8:20 PM 57.2 °F - 48.2 °F 72% 29.98 in - ENE 1.2 mph - N/A   Clear
8:50 PM 55.4 °F - 48.2 °F 77% 29.98 in - East 4.6 mph - N/A   Clear
9:00 PM 56 °F - 49 °F 71% 29.99 in 31 mi ESE 4.5 mph - -   Clear
9:20 PM 55.4 °F - 48.2 °F 77% 29.98 in - SE 5.8 mph - N/A   Clear
9:50 PM 53.6 °F - 48.2 °F 82% 29.98 in - ESE 5.8 mph - N/A   Clear
10:00 PM 54 °F - 48 °F 74% 30.00 in 25 mi ESE 6.7 mph - -  
10:20 PM 53.6 °F - 48.2 °F 82% 29.98 in - SSE 4.6 mph - N/A   Clear
10:50 PM 55.4 °F - 46.4 °F 72% 29.98 in - SSE 5.8 mph - N/A   Clear
11:20 PM 51.8 °F - 46.4 °F 82% 29.98 in - ESE 5.8 mph - N/A   Clear
11:50 PM 53.6 °F - 46.4 °F 77% 29.98 in - ESE 3.5 mph - N/A   Clear